Regional Weather Roundup
Issued by NWS New Orleans/Baton Rouge, LA

Home | Current Version | Previous Version | Graphics & Text | Print | Product List | Glossary On
Versions: 1 2 3 4 5 6 7 8 9 10 11 12 13 14 15 16 17 18 19 20 21 22 23 24 25 26 27 28 29 30 31 32 33 34 35 36 37 38 39 40 41 42 43 44 45 46 47 48 49 50
884
ASUS44 KLIX 270505
RWRLIX
NEW ORLEANS REGIONAL WEATHER ROUNDUP
NATIONAL WEATHER SERVICE NEW ORLEANS LA
1100 PM CST MON JAN 26 2015

NOTE: "FAIR" INDICATES FEW OR NO CLOUDS BELOW 12,000 FEET WITH NO
      SIGNIFICANT WEATHER AND/OR OBSTRUCTIONS TO VISIBILITY.
      SKY/WX - SKY CONDITION AND SIGNIFICANT WEATHER.
      TMP - AIR TEMPERATURE.     DP    - DEWPOINT TEMPERATURE.
      RH  - RELATIVE HUMIDITY.   PRES  - PRESSURE.
      HI  - HEAT INDEX.          WCI   - WIND CHILL INDEX.

*  THESE STATIONS ARE NOT NWS OR FAA STATIONS AND ARE NOT UNDER
   NWS QUALITY CONTROL.

LAZ038-040-048-061>063-065>067-069-270600-
SOUTHEAST LOUISIANA

CITY           SKY/WX    TMP DP  RH WIND       PRES   REMARKS
N.O. AUDUBON     N/A     48 N/A N/A MISG        N/A
N.O. INTL ARPT PTCLDY    48  37  65 SW8       30.10S
N.O. LAKEFRONT CLEAR     55  40  56 W13       30.09F
N.O. DOWNTOWN*   N/A     54  34  47 S5        30.10F
SLIDELL        CLEAR     45  37  73 CALM      30.07F
BATON ROUGE    CLEAR     47  36  65 SW7       30.10R
BOOTHVILLE     CLEAR     51  45  79 W8        30.10F
BELLE CHASSE   PTCLDY    48  37  65 W5        30.09F
BOGALUSA*        N/A     40  36  85 CALM      30.09R
GALLIANO*      CLEAR     51  45  81 MISG      30.12S
NEW ROADS*       N/A     43  38  83 CALM      30.11R
GONZALES*        N/A     48  38  66 SW3       30.10S
HAMMOND*       CLEAR     43  36  75 CALM      30.10S
HOUMA*         CLEAR     45  43  91 SW5       30.12S
PORT FOURCHON* CLEAR     54  48  82 W9        30.16R

$$

MSZ070-080>082-270600-
SOUTHERN MISSISSIPPI

CITY           SKY/WX    TMP DP  RH WIND       PRES   REMARKS
MCCOMB         CLEAR     46  35  65 W5        30.07R
GULFPORT       CLEAR     41  36  82 CALM      30.06R
BILOXI         CLEAR     46  40  79 W3        30.06R
PASCAGOULA     CLEAR     37  35  92 CALM      30.06S

$$

COASTAL OBSERVATIONS
LAKE AND NEARSHORE STATIONS

STATION/POSITION TIME  TEMP    WIND        PRES    WAVE
                       AIR SEA DIR/SP/G            HT/PER
                 (UTC) (F)     (DEG/KT/KT) (MB)    (FT/S)
PASCAGOULA       0500   49     260/  7/  8 1017.1
WAVELAND YACHT   0500   50     270/  5/  6 1017.4
GRAND ISLE       0500   54 57  270/ 12/ 15 1020.2
SOUTHWEST PASS   0500   56 46  300/  9/ 13 1019.8
NEW CANAL        0500   53 52  240/  6/  8 1019.2
SHELL BEACH      0500   50 53  240/  9/ 10 1018.7

OFFSHORE STATIONS

STATION/POSITION TIME  TEMP    WIND        PRES    WAVE
                       AIR SEA DIR/SP/G            HT/PER
                 (UTC) (F)     (DEG/KT/KT) (MB)    (FT/S)
64 S DAUPHIN ISL 0435   60 70  290/ 14/ 17 1018.6    5/ 8

$$




USA.gov is the U.S. government's official web portal to all federal, state and local government web resources and services.